DECAYED

OBJECT BQ, 56231 (Decayed)

Orbit data source: Space-Track

You're viewing an Uncataloged Satellite

Recently launched and/or uncataloged satellites may have evolving metadata. Metadata may include but not limited to: Owner, Maufacturer, Bus, Motor, and Mission.

OBJECT BQ, 56231 was a satellite in LEO that was launched on Mon, 12 Jun 2023 UTC via an FALCON 9 launch vehicle from the Air Force Western Test Range (AFWTR). Unknown objects in Earth's orbit typically refer to objects detected orbiting the Earth but have not yet been identified or cataloged. These objects could be anything from previously untracked satellites, spent rocket stages, debris from satellite collisions, or even natural meteoroids temporarily captured by Earth's gravity. This object's orbit decayed before it could be identified.

Not visible in the next 10 days
Identifier
56231, 2023-084BQ
Orbit
Decayed
Country
Flag of TBDTBD
Related business
None
Manufacturer
Unknown
Mission
Decayed Amateur Technology
Bus & Motor
Unknown
Mass
Unknown
Launch date (UTC)
2023-06-12 (3 years ago)
Launch vehicle
FALCON 9
Launch site
Air Force Western Test Range (AFWTR)
Object type
Unknown
Shape & HBR
Box, 0.1 m
Radar Cross Section
0.006 m², Small (<0.1 m²)

Expand to show TLE details & history
Last TLE update: 7 months ago

TLE from 7 months ago
0 OBJECT BQ
1 56231U 23084BQ  25192.42911071  .13505995  27050-5  19089-3 0  9994
2 56231  97.5660 335.3097 0013530 262.1601  97.8166 16.48174529116408
Epoch: 2025-07-11T10:17Z
TLE epoch observation values (Epoch: 2025-07-11T10:17:55.165Z)
Latitude
-0.00006°
Longitude
-108.75131°
Altitude
148.616 km
Speed
7.816 km/s
True Right ascension
22h 21m 14s
True Declination
0° 00' 00"
Sunlit
Object was in full shadow at epoch
Visualization orbit readout
Latitude
Unknown
Longitude
Unknown
Altitude
Unknown
Speed
Unknown
Apparent Right ascension
Unknown
Apparent Declination
Unknown
Sunlit
N/A
Visualization observer readout
Local Sidereal Time
07:08:57
Azimuth
Unknown
Elevation
Unknown
Doppler factor
Unknown
Orbital elements
Apogee altitude
149.772 km
Perigee altitude
132.131 km
Semi-major axis
6,519.089 km
Eccentricity
0.00135
Inclination
97.566°
RAAN
335.3097°
Arg. of periapsis
262.1601°
True anomaly
97.97017°
Mean anomaly
97.8166°
Eccentric anomaly
97.89339°
Mean motion
4.12347 °/min
Orbital period
87.31 mins
BSTAR
0.00019089
Loading maneuver chart data...
Computing Atmospheric mass density...
Loading historical data...
Loading historical data...
Loading historical data...
Loading historical data...
Loading historical data...
Loading historical data...
Loading historical data...

Documentation

Showing up to 5 results
|